Location: St. Louis
(38.6270°N, 90.1994°W)
Time: 08:47:36
(UTC-06:00)

SR - Pass Details

Date: 06 December 2021
Orbit: 582 x 872 km, 66.7° (Epoch: 21 January)

Event Time Altitude Azimuth Distance (km) Brightness Sun altitude
Rises 23:25:02 0° 239° (WSW) 2,980 - -73.0°
Reaches altitude 10° 23:27:47 10° 254° (WSW) 2,025 - -73.2°
Maximum altitude 23:31:24 23° 307° (NW) 1,316 - -73.4°
Drops below altitude 10° 23:34:53 10° 1° (N) 1,940 - -73.6°
Sets 23:37:29 0° 16° (NNE) 2,824 - -73.7°
